Location: Dappach
(48.9767°N, 9.6998°E)
Time: 19:59:00
(UTC+00:00)

COSMOS 2428 - Pass Details

Date: 19 August 2024
Orbit: 842 x 857 km, 70.9° (Epoch: 09 September)

Event Time Altitude Azimuth Distance (km) Brightness Sun altitude
Exits shadow 02:03:54 10° 282° (WNW) 2,505 4.9 -19.1°
Reaches altitude 10° 02:04:00 10° 282° (WNW) 2,482 4.9 -19.1°
Maximum altitude 02:07:46 18° 324° (NW) 1,994 4.8 -18.7°
Drops below altitude 10° 02:11:34 10° 6° (N) 2,495 5.9 -18.2°
Sets 02:14:55 0° 25° (NNE) 3,438 7.3 -17.9°
